Weather History for Istres, France

Change the Weather History Date:

Friday, November 2, 2012

  Actual Average (LFML) Record (LFML)
Temperature  
Mean Temperature 56 °F -  
Max Temperature 64 °F 63 °F 72 °F (2013)
Min Temperature 48 °F 48 °F 41 °F (2007)
Degree Days  
Heating Degree Days 9    
Growing Degree Days 6 (Base 50)    
Moisture  
Dew Point 48 °F    
Average Humidity 76    
Maximum Humidity 94    
Minimum Humidity 49    
Precipitation  
Precipitation 0.00 in - - ()
Sea Level Pressure  
Sea Level Pressure 29.82 in    
Wind  
Wind Speed 4 mph ()    
Max Wind Speed 13 mph    
Max Gust Speed 24 mph    
Visibility 6.2 miles    
Events      
Averages and records for this station are not official NWS values.
T = Trace of Precipitation, MM = Missing Value Source: Averaged Metar Reports

Daily Weather History Graph

Daily Weather History Graph

Search for Another Location

Airport:

Trip Planner

Search our weather history database for the weather conditions in past years. The results will help you decide how hot, cold, wet, or windy it might be!

Date:

Astronomy

Nov. 02, 2012 Rise Set
Actual Time 7:17 AM CET 5:29 PM CET
Civil Twilight 6:47 AM CET 5:59 PM CET
Nautical Twilight 6:13 AM CET 6:33 PM CET
Astronomical Twilight 5:40 AM CET 7:06 PM CET
Moon 7:59 PM CET (11/2) 10:29 AM CET (11/2)
Length of Visible Light 11h 12m
Length of Day
10h 12m
Waning Gibbous, 89% of the Moon is Illuminated
Nov 2
Waning Gibbous
Nov 7
Last Quarter
Nov 13
New
Nov 20
First Quarter
Nov 28
Full

Hourly Weather History & Observations

Time (CET) Temp. Dew Point Humidity Pressure Visibility Wind Dir Wind Speed Gust Speed Precip Events Conditions
12:00 AM 51.8 °F 48.2 °F 88% 29.68 in 6.2 mi Calm Calm - N/A   Unknown
12:30 AM 51.8 °F 48.2 °F 88% 29.71 in 6.2 mi Variable 1.2 mph - N/A   Unknown
1:00 AM 51.8 °F 48.2 °F 88% 29.71 in 6.2 mi WNW 3.5 mph - N/A   Unknown
1:30 AM 51.8 °F 48.2 °F 88% 29.71 in 6.2 mi WNW 3.5 mph - N/A   Unknown
2:00 AM 51.8 °F 48.2 °F 88% 29.71 in 6.2 mi NW 4.6 mph - N/A   Unknown
2:30 AM 53.6 °F 46.4 °F 77% 29.71 in 6.2 mi North 4.6 mph - N/A   Unknown
3:00 AM 51.8 °F 46.4 °F 82% 29.74 in 6.2 mi NNE 4.6 mph - N/A   Unknown
3:30 AM 51.8 °F 46.4 °F 82% 29.74 in 6.2 mi Variable 1.2 mph - N/A   Unknown
4:00 AM 51.8 °F 48.2 °F 88% 29.74 in 6.2 mi West 2.3 mph - N/A   Overcast
4:30 AM 51.8 °F 48.2 °F 88% 29.74 in 6.2 mi West 3.5 mph - N/A   Unknown
5:00 AM 51.8 °F 48.2 °F 88% 29.77 in 6.2 mi WNW 3.5 mph - N/A   Unknown
5:30 AM 50.0 °F 46.4 °F 87% 29.77 in 6.2 mi Calm Calm - N/A   Unknown
6:00 AM 50.0 °F 46.4 °F 87% 29.77 in 6.2 mi NNE 3.5 mph - N/A   Unknown
6:30 AM 50.0 °F 46.4 °F 87% 29.77 in 6.2 mi North 3.5 mph - N/A   Unknown
7:00 AM 50.0 °F 46.4 °F 87% 29.77 in 6.2 mi ENE 2.3 mph - N/A   Unknown
7:30 AM 48.2 °F 44.6 °F 87% 29.80 in 6.2 mi SSW 1.2 mph - N/A   Unknown
8:00 AM 50.0 °F 48.2 °F 94% 29.80 in 6.2 mi Calm Calm - N/A   Unknown
8:30 AM 51.8 °F 48.2 °F 88% 29.83 in 6.2 mi Variable 2.3 mph - N/A   Unknown
9:00 AM 55.4 °F 48.2 °F 77% 29.83 in 6.2 mi Variable 2.3 mph - N/A   Unknown
9:30 AM 57.2 °F 46.4 °F 67% 29.83 in 6.2 mi Variable 2.3 mph - N/A   Unknown
10:00 AM 59.0 °F 46.4 °F 63% 29.83 in 6.2 mi Calm Calm - N/A   Unknown
10:30 AM 59.0 °F 46.4 °F 63% 29.86 in 6.2 mi Variable 2.3 mph - N/A   Unknown
11:00 AM 60.8 °F 48.2 °F 63% 29.86 in 6.2 mi Variable 3.5 mph - N/A   Unknown
11:30 AM 60.8 °F 46.4 °F 59% 29.83 in 6.2 mi Variable 2.3 mph - N/A   Unknown
12:00 PM 64.4 °F 44.6 °F 49% 29.83 in 6.2 mi Variable 2.3 mph - N/A   Unknown
12:30 PM 64.4 °F 46.4 °F 52% 29.83 in 6.2 mi SW 6.9 mph - N/A   Unknown
1:00 PM 62.6 °F 50.0 °F 63% 29.83 in 6.2 mi South 12.7 mph 24.2 mph N/A   Scattered Clouds
1:30 PM 62.6 °F 48.2 °F 59% 29.83 in 6.2 mi SSW 9.2 mph - N/A   Unknown
2:00 PM 64.4 °F 48.2 °F 56% 29.83 in 6.2 mi SSW 8.1 mph - N/A   Unknown
2:30 PM 64.4 °F 46.4 °F 52% 29.83 in 6.2 mi SW 6.9 mph - N/A   Unknown
3:00 PM 62.6 °F 48.2 °F 59% 29.83 in 6.2 mi South 9.2 mph - N/A   Scattered Clouds
3:30 PM 62.6 °F 46.4 °F 55% 29.86 in 6.2 mi South 9.2 mph - N/A   Unknown
4:00 PM 62.6 °F 46.4 °F 55% 29.86 in 6.2 mi South 8.1 mph - N/A   Unknown
4:30 PM 60.8 °F 48.2 °F 63% 29.86 in 6.2 mi South 6.9 mph - N/A   Unknown
5:00 PM 60.8 °F 48.2 °F 63% 29.86 in 6.2 mi South 5.8 mph - N/A   Unknown
5:30 PM 59.0 °F 48.2 °F 67% 29.86 in 6.2 mi SE 5.8 mph - N/A   Unknown
6:00 PM 57.2 °F 48.2 °F 72% 29.86 in 6.2 mi SE 6.9 mph - N/A   Unknown
6:30 PM 57.2 °F 48.2 °F 72% 29.89 in 6.2 mi SE 5.8 mph - N/A   Unknown
7:00 PM 57.2 °F 50.0 °F 77% 29.89 in 6.2 mi ESE 8.1 mph - N/A   Unknown
7:30 PM 55.4 °F 50.0 °F 82% 29.89 in 6.2 mi ESE 5.8 mph - N/A   Unknown
8:00 PM 53.6 °F 50.0 °F 88% 29.89 in 6.2 mi East 5.8 mph - N/A   Unknown
8:30 PM 53.6 °F 50.0 °F 88% 29.89 in 6.2 mi East 4.6 mph - N/A   Unknown
9:00 PM 53.6 °F 50.0 °F 88% 29.89 in 6.2 mi East 6.9 mph - N/A   Unknown
9:30 PM 53.6 °F 48.2 °F 82% 29.89 in 6.2 mi East 5.8 mph - N/A   Unknown
10:00 PM 51.8 °F 48.2 °F 88% 29.89 in 6.2 mi ENE 4.6 mph - N/A   Unknown
10:30 PM 53.6 °F 48.2 °F 82% 29.89 in 6.2 mi East 9.2 mph - N/A   Unknown
11:00 PM 53.6 °F 48.2 °F 82% 29.89 in 6.2 mi East 9.2 mph - N/A   Unknown
11:30 PM 53.6 °F 46.4 °F 77% 29.89 in 6.2 mi East 6.9 mph - N/A   Unknown